Simultaneous Nadir Overpasses (SNOs) Predictions

Prediction of SNOs between GOES-16 and NPP Satellite Orbit:

Table of predicted SNOs for the next 14.0 days since TLE Epoch: 1/24/2025
Index Date Time (GOES-16) GOES-16 Lat,Lon NPP Lat,Lon Distance(km) Time Diff (sec)
1 01/25/2025 18:33:51 -0.01, -75.20 -0.53, -77.41 252.09 80
2 01/26/2025 18:17:47 -0.02, -75.21 0.48, -72.88 264.96 80
3 01/28/2025 06:39:35 0.01, -75.20 0.70, -78.15 336.05 80
4 01/29/2025 06:18:12 0.01, -75.21 -0.38, -73.63 180.86 80
5 01/30/2025 18:40:07 -0.01, -75.23 -0.86, -78.92 421.13 80
6 01/31/2025 18:24:03 -0.00, -75.24 0.16, -74.39 96.63 80
7 02/03/2025 06:24:26 0.00, -75.26 -0.01, -75.12 15.32 80
8 02/05/2025 18:27:38 0.00, -75.30 -0.11, -75.90 67.88 80
9 02/06/2025 18:11:33 0.00, -75.32 0.86, -71.36 450.39 80
